User: anonymous
Location: Unspecified
(0.0000°N, 0.0000°E)
Time: 09:48:59
(UTC+00:00)
Language:

OPTUS D1 - Orbit

View from above orbital plane
View from above orbital plane
View from above satellite
View from above satellite

Ground track
Ground track

The orbit data is extracted from the following two-line orbital elements,

1 29495U 06043B   14261.75376615 -.00000135  00000-0  10000-3 0  5750
2 29495 000.0289 312.5022 0003491 231.9476 244.4966 01.00272696 29137
Epoch (UTC): 18 September 2014 18:05:25
Eccentricity: 0.0003491
inclination: 0.0289°
perigee height: 35771 km
apogee height: 35800 km
right ascension of ascending node: 312.5022°
argument of perigee: 231.9476°
revolutions per day: 1.00272696
mean anomaly at epoch: 244.4966°
orbit number at epoch: 2913

The dashed part of the orbit path shows where the satellite is in the earth's shadow,  

DLR